[[{"header":{"parameterUnit":"m.s-1","parameterCategory":1,"la1":30.2991,"la2":30.254,"lo1":-89.0895,"lo2":-89.0444,"dx":0.0017,"dy":0.0017,"nx":28,"ny":28,"refTime":"2022-11-29T09:00:00:Z","depth":0,"parameterNumber":2,"parameterNumberName":"U-component_of_WINDS"},"data":[0,0,0,0,0,0,0,0,0,0,0,0,0,0,0,0,0,0,0,0,0,0,0,0,0,0,0,0,0,0,0,0,0,0,0,0,0,0,0,0,0,0,0,0,0,0,0,0,0,0,0,0,0,0,0,0,0,0,-1.5266,-1.5267,0,-1.5389,-1.539,-1.5391,-1.5458,-1.5458,-1.5458,-1.5459,-1.5586,-1.5589,-1.5592,0,0,0,0,0,0,0,0,0,0,0,0,0,-1.509,-1.5093,-1.5266,-1.5267,-1.5269,-1.5388,-1.539,-1.5392,-1.5458,-1.5458,-1.5458,-1.5459,-1.5585,-1.5589,-1.5593,0,0,0,0,0,0,0,0,0,0,0,0,0,-1.5185,-1.5094,-1.5266,-1.5316,-1.5322,-1.5388,-1.539,-1.5392,-1.5458,-1.5458,-1.5458,-1.5459,-1.5584,-1.5589,-1.5593,-1.5619,0,0,-1.5608,-1.561,0,0,0,0,0,0,0,0,-1.518,-1.5191,-1.5307,-1.5313,-1.532,-1.5408,-1.5375,-1.5468,-1.5458,-1.5406,-1.5459,-1.5459,-1.5527,-1.5536,-1.5559,-1.5625,-1.563,-1.5609,-1.5612,-1.5614,-1.5615,0,0,0,0,0,0,0,-1.5173,-1.5187,-1.5315,-1.5309,-1.5316,-1.5333,-1.5347,-1.5393,-1.5464,-1.5411,-1.5416,-1.543,-1.553,-1.5554,-1.5563,-1.5632,-1.5609,-1.5613,-1.5616,-1.5618,-1.5725,-1.5725,0,0,0,0,0,0,-1.5158,-1.5181,-1.5311,-1.5318,-1.5249,-1.5336,-1.5352,-1.538,-1.5464,-1.5477,-1.5429,-1.5432,-1.5546,-1.5557,-1.5567,-1.5602,-1.5614,-1.5618,-1.5621,-1.5725,-1.5725,-1.5725,0,0,0,0,0,0,-1.5154,-1.5169,-1.5306,-1.5251,-1.527,-1.5339,-1.537,-1.5382,-1.5406,-1.5477,-1.5491,-1.5441,-1.5546,-1.556,-1.5605,-1.5608,-1.562,-1.5625,-1.5725,-1.5725,-1.5725,-1.5673,0,0,0,0,0,0,-1.5149,-1.5167,-1.5177,-1.5251,-1.5272,-1.5341,-1.537,-1.5384,-1.5414,-1.5419,-1.5491,-1.5504,-1.5548,-1.5598,-1.561,-1.5615,-1.5629,-1.5725,-1.5725,-1.5725,-1.5675,-1.5671,-1.5668,0,0,0,0,0,-1.5142,-1.5158,-1.5177,-1.5193,-1.5286,-1.5341,-1.5354,-1.5403,-1.5414,-1.5425,-1.5471,-1.5501,-1.5605,-1.5602,-1.5616,-1.5622,-1.5725,-1.5725,-1.5725,-1.5676,-1.5672,-1.5668,0,0,0,0,0,0,-1.5084,-1.5169,-1.5191,-1.5231,-1.5278,-1.5352,-1.5367,-1.5397,-1.5442,-1.5445,-1.5505,-1.5521,-1.556,-1.5596,-1.559,-1.5651,-1.5669,-1.5671,-1.5627,-1.5623,-1.5619,-1.561,-1.5633,0,0,0,0,0,-1.5076,-1.5113,-1.5185,-1.5213,-1.5236,-1.5297,-1.5323,-1.5357,-1.5409,-1.5429,-1.5479,-1.5528,-1.5572,-1.5599,-1.5644,-1.568,-1.5697,-1.5692,-1.5688,-1.5685,-1.5687,-1.5708,-1.5707,-1.5724,-1.5724,-1.5724,0,0,-1.506,-1.511,-1.513,-1.5203,-1.5244,-1.5281,-1.5314,-1.5352,-1.538,-1.5435,-1.548,-1.5518,-1.5577,-1.5618,-1.5638,-1.5649,-1.5685,-1.5685,-1.5682,-1.5685,-1.5708,-1.5706,-1.5704,-1.5724,-1.5724,-1.5724,0,0,-1.5049,-1.5091,-1.5119,-1.5158,-1.5219,-1.526,-1.5266,-1.5336,-1.5363,-1.5409,-1.5451,-1.5485,-1.556,-1.56,-1.563,-1.5634,-1.5664,-1.5646,-1.5628,-1.5649,-1.5647,-1.5646,-1.5647,-1.5647,-1.5648,-1.5648,-1.5648,0,-1.5021,-1.5078,-1.513,-1.5165,-1.5196,-1.5246,-1.5275,-1.5312,-1.5384,-1.5404,-1.5415,-1.5509,-1.5552,-1.5603,-1.5603,-1.5626,-1.5636,-1.5638,-1.5643,-1.5643,-1.5643,-1.5644,-1.5645,-1.5645,-1.5645,-1.5646,-1.5646,0,-1.504,-1.5079,-1.5095,-1.5162,-1.5195,-1.5227,-1.5284,-1.5311,-1.5342,-1.5381,-1.5427,-1.5481,-1.5537,-1.5552,-1.5583,-1.5607,-1.5611,-1.5632,-1.565,-1.5638,-1.564,-1.5641,-1.5642,-1.5642,-1.5643,-1.5644,0,0,-1.4997,-1.5091,-1.5096,-1.5127,-1.5197,-1.5229,-1.5263,-1.5317,-1.5339,-1.5387,-1.5417,-1.5478,-1.5498,-1.5532,-1.5568,-1.5586,-1.5585,-1.5605,-1.5607,-1.5599,-1.5614,-1.5597,-1.5597,-1.5605,-1.5605,-1.5606,-1.5609,0,-1.4995,-1.5058,-1.5106,-1.5151,-1.5187,-1.5236,-1.5266,-1.5312,-1.535,-1.5387,-1.5429,-1.5472,-1.5494,-1.5515,-1.5535,-1.558,-1.5588,-1.5581,-1.5634,-1.5635,-1.5617,-1.5599,-1.5582,-1.5582,-1.561,-1.561,-1.5611,0,-1.5002,-1.5047,-1.5096,-1.5161,-1.5179,-1.5204,-1.5257,-1.5292,-1.5346,-1.5372,-1.541,-1.5447,-1.5486,-1.55,-1.5555,-1.5548,-1.5573,-1.5599,-1.56,-1.5607,-1.5622,-1.5604,-1.5583,-1.5583,-1.5613,-1.5612,-1.5612,0,-1.4965,-1.5038,-1.5076,-1.5101,-1.5179,-1.5196,-1.5229,-1.5283,-1.5312,-1.5359,-1.5378,-1.5429,-1.5457,-1.5495,-1.5545,-1.5551,-1.5594,-1.5614,-1.5618,-1.5616,-1.5624,-1.5623,-1.5606,-1.564,-1.564,-1.564,-1.564,0,-1.4958,-1.4986,-1.506,-1.5083,-1.5116,-1.517,-1.5201,-1.5239,-1.5286,-1.5318,-1.5364,-1.5393,-1.5457,-1.5494,-1.5534,-1.5573,-1.5585,-1.5608,-1.5618,-1.5603,-1.56,-1.562,-1.5621,-1.564,-1.564,-1.564,-1.564,0,-1.4922,-1.4973,-1.5017,-1.5087,-1.5105,-1.5126,-1.5186,-1.5211,-1.5251,-1.529,-1.5303,-1.5366,-1.5412,-1.5466,-1.553,-1.5556,-1.5592,-1.5607,-1.5573,-1.5579,-1.558,-1.5579,-1.5575,-1.5577,-1.5609,-1.5609,-1.5609,0,-1.4914,-1.4936,-1.5008,-1.5032,-1.5063,-1.5102,-1.5132,-1.5186,-1.5215,-1.5278,-1.5295,-1.5344,-1.5386,-1.5458,-1.551,-1.5559,-1.5576,-1.5571,-1.5583,-1.5568,-1.5575,-1.5573,-1.5575,-1.5567,-1.5567,-1.5566,-1.5566,0,-1.4894,-1.4918,-1.4959,-1.5008,-1.5041,-1.5083,-1.5126,-1.5144,-1.5207,-1.5238,-1.5285,-1.5317,-1.5382,-1.543,-1.5486,-1.5521,-1.5554,-1.5561,-1.5565,-1.555,-1.5529,-1.554,-1.5563,-1.5561,-1.5562,-1.5562,-1.5562,-1.5562,-1.4872,-1.4894,-1.4947,-1.499,-1.5028,-1.5068,-1.5094,-1.5137,-1.5177,-1.5233,-1.5263,-1.5309,-1.5363,-1.5441,-1.5475,-1.5512,-1.5524,-1.5529,-1.553,-1.553,-1.5526,-1.5523,-1.5523,-1.5523,-1.5523,-1.5523,-1.5524,0,-1.4854,-1.4891,-1.493,-1.4989,-1.5023,-1.505,-1.5099,-1.5126,-1.5166,-1.5213,-1.5253,-1.5307,-1.5354,-1.5409,-1.546,-1.5479,-1.5496,-1.5491,-1.549,-1.5497,-1.5513,-1.5505,-1.5477,-1.5477,-1.5477,-1.5477,-1.5477,-1.5477,-1.4849,-1.4887,-1.4917,-1.4974,-1.5011,-1.5056,-1.5081,-1.5118,-1.5155,-1.5213,-1.5252,-1.5287,-1.5338,-1.5392,-1.5437,-1.5452,-1.5469,-1.5459,-1.5479,-1.5492,-1.5496,-1.55,-1.5492,-1.5462,-1.5462,-1.546,-1.546,-1.546]},{"header":{"parameterUnit":"m.s-1","parameterCategory":1,"la1":30.2991,"la2":30.254,"lo1":-89.0895,"lo2":-89.0444,"dx":0.0017,"dy":0.0017,"nx":28,"ny":28,"refTime":"2022-11-29T09:00:00:Z","depth":0,"parameterNumber":3,"parameterNumberName":"V-component_of_WINDS"},"data":[0,0,0,0,0,0,0,0,0,0,0,0,0,0,0,0,0,0,0,0,0,0,0,0,0,0,0,0,0,0,0,0,0,0,0,0,0,0,0,0,0,0,0,0,0,0,0,0,0,0,0,0,0,0,0,0,0,0,4.7119,4.7122,0,4.7326,4.7328,4.733,4.7371,4.7369,4.7367,4.7366,4.7575,4.7582,4.7589,0,0,0,0,0,0,0,0,0,0,0,0,0,4.676,4.6766,4.7119,4.7122,4.7124,4.7325,4.7328,4.7331,4.7371,4.7369,4.7367,4.7365,4.7572,4.7581,4.7589,0,0,0,0,0,0,0,0,0,0,0,0,0,4.6936,4.6768,4.7119,4.7169,4.7175,4.7325,4.7328,4.7332,4.7371,4.7369,4.7366,4.7364,4.757,4.758,4.759,4.7704,0,0,4.7623,4.7627,0,0,0,0,0,0,0,0,4.6926,4.6949,4.7159,4.7165,4.7173,4.732,4.7278,4.7457,4.7372,4.7297,4.7366,4.7363,4.7492,4.7509,4.7553,4.7714,4.7723,4.7624,4.763,4.7635,4.7638,0,0,0,0,0,0,0,4.6913,4.694,4.7201,4.7162,4.717,4.7181,4.7203,4.7312,4.7405,4.7303,4.7306,4.733,4.7495,4.7542,4.7558,4.7726,4.7623,4.7633,4.7639,4.7644,4.7996,4.7998,0,0,0,0,0,0,4.6893,4.693,4.7194,4.7207,4.7041,4.7189,4.7214,4.7275,4.7404,4.7422,4.7332,4.7332,4.7525,4.7545,4.7565,4.7711,4.7635,4.7645,4.7651,4.7993,4.7996,4.7999,0,0,0,0,0,0,4.6885,4.6916,4.7186,4.707,4.7105,4.7198,4.7266,4.7281,4.7328,4.7426,4.7443,4.7363,4.7524,4.755,4.7671,4.7718,4.7649,4.7659,4.7989,4.7994,4.7998,4.8,0,0,0,0,0,0,4.6874,4.6913,4.6957,4.707,4.7111,4.7288,4.7269,4.7286,4.7346,4.7347,4.746,4.7476,4.7524,4.7655,4.7681,4.7732,4.7667,4.7985,4.7991,4.7996,4.7996,4.8004,4.8011,0,0,0,0,0,4.6861,4.6948,4.6959,4.6991,4.7168,4.7291,4.7314,4.7368,4.735,4.7396,4.7459,4.7473,4.7708,4.7666,4.7697,4.7751,4.7983,4.7989,4.7996,4.7993,4.8003,4.8011,0,0,0,0,0,0,4.6836,4.6964,4.6977,4.7103,4.7186,4.7297,4.7356,4.7376,4.7465,4.7462,4.7525,4.755,4.7667,4.7721,4.7672,4.787,4.7844,4.7857,4.7832,4.7842,4.7849,4.7835,4.7676,0,0,0,0,0,4.6846,4.6935,4.7041,4.7142,4.7183,4.7262,4.7318,4.7353,4.7441,4.7476,4.7548,4.7632,4.7726,4.7786,4.7877,4.8003,4.803,4.8056,4.8063,4.8068,4.808,4.8154,4.8168,4.8022,4.8021,4.8021,0,0,4.6865,4.6946,4.6998,4.7139,4.7207,4.7299,4.7292,4.7388,4.7457,4.749,4.761,4.7665,4.7764,4.7888,4.7947,4.7937,4.8126,4.8077,4.8081,4.809,4.8163,4.8177,4.8189,4.8026,4.8025,4.8025,0,0,4.695,4.7018,4.7112,4.7181,4.7286,4.7338,4.736,4.747,4.7509,4.763,4.7657,4.774,4.7898,4.7969,4.8025,4.8138,4.8155,4.8166,4.8205,4.8277,4.8289,4.8299,4.8343,4.8358,4.8176,4.8176,4.8176,0,4.6962,4.7102,4.7157,4.7255,4.7317,4.7352,4.7448,4.7512,4.764,4.7682,4.7669,4.7871,4.7939,4.8083,4.8111,4.8154,4.8183,4.8155,4.8282,4.8294,4.8304,4.8347,4.8363,4.8177,4.8177,4.8177,4.8177,0,4.7113,4.7209,4.7272,4.7398,4.7467,4.7562,4.7633,4.7696,4.7725,4.7779,4.7903,4.7987,4.8097,4.8133,4.8161,4.8282,4.8273,4.827,4.8246,4.8318,4.836,4.8376,4.8178,4.8178,4.8178,4.8178,0,0,4.7188,4.7345,4.7367,4.7426,4.7544,4.762,4.7718,4.7827,4.7882,4.7968,4.8054,4.8188,4.8188,4.8252,4.8288,4.835,4.844,4.8341,4.8344,4.8359,4.8582,4.8586,4.8604,4.845,4.8453,4.8456,4.8575,0,4.7289,4.7467,4.7521,4.767,4.7762,4.7797,4.7883,4.7965,4.8018,4.8104,4.8162,4.8258,4.8248,4.8287,4.835,4.8415,4.8486,4.8407,4.8532,4.8536,4.851,4.8625,4.8629,4.8737,4.8591,4.8594,4.8596,0,4.7432,4.7524,4.7683,4.7793,4.7833,4.791,4.8016,4.8097,4.8191,4.8225,4.8298,4.833,4.8435,4.8402,4.8549,4.8494,4.8548,4.8588,4.8593,4.861,4.8573,4.8648,4.8773,4.879,4.8621,4.8619,4.8617,0,4.7476,4.7639,4.7757,4.7805,4.7935,4.7989,4.8045,4.8137,4.82,4.8292,4.8335,4.8437,4.8494,4.8572,4.8632,4.8602,4.8774,4.8746,4.8808,4.8807,4.8845,4.8842,4.8984,4.8873,4.8873,4.8873,4.8872,0,4.7586,4.7682,4.7779,4.7851,4.7961,4.8022,4.8129,4.8187,4.8269,4.8354,4.8389,4.8468,4.8539,4.8628,4.8674,4.879,4.8814,4.8847,4.8859,4.8846,4.8843,4.8885,4.888,4.8877,4.8876,4.8875,4.8874,0,4.7655,4.7723,4.7854,4.7967,4.7997,4.8074,4.8171,4.8243,4.8297,4.8405,4.8433,4.8519,4.8626,4.8692,4.8826,4.8857,4.8987,4.8993,4.8956,4.8962,4.9022,4.9017,4.9198,4.9227,4.9093,4.9094,4.9095,0,4.7722,4.7798,4.792,4.798,4.8038,4.8133,4.8199,4.8262,4.8329,4.8444,4.8503,4.8611,4.8702,4.8871,4.8945,4.9049,4.9061,4.9117,4.9077,4.9063,4.9067,4.9063,4.9073,4.9125,4.9126,4.9127,4.9128,0,4.7836,4.7867,4.7961,4.8067,4.8145,4.8232,4.8318,4.8365,4.8442,4.8516,4.8626,4.8697,4.8835,4.8944,4.9055,4.9113,4.9135,4.914,4.9161,4.915,4.9127,4.9145,4.8978,4.9136,4.9135,4.9135,4.9134,4.9134,4.791,4.798,4.8078,4.8182,4.8254,4.8335,4.8409,4.8474,4.8568,4.8687,4.8717,4.8834,4.8928,4.908,4.914,4.9232,4.9224,4.9253,4.9261,4.9268,4.9272,4.9109,4.9252,4.9252,4.9252,4.9251,4.9251,0,4.8029,4.8094,4.8189,4.8311,4.8393,4.8406,4.8503,4.8571,4.8674,4.876,4.885,4.8978,4.9084,4.9167,4.9276,4.9334,4.9348,4.9361,4.936,4.9374,4.927,4.9244,4.9349,4.9349,4.9349,4.9349,4.9349,4.9349,4.8101,4.8223,4.8265,4.8423,4.8487,4.8603,4.8658,4.8733,4.8803,4.8945,4.9034,4.9088,4.9174,4.929,4.9389,4.9411,4.9451,4.9464,4.9488,4.9391,4.938,4.937,4.9346,4.9471,4.9471,4.9584,4.9585,4.9586]}]]